Home > Weather > Tromsø > Past weeks

Flag for Norway Past Weather in Tromsø, Norway — Yesterday and Last 2 Weeks

Now
53 °F

Scattered clouds.


Feels Like: 49 °F
Forecast: 49 / 65 °F
Wind: 10 mph from Northeast

Location: Tromso / Langnes

Current Time: Jul 30, 2016 at 8:50:13 PM

Latest Report: Jul 30, 2016 at 8:00 PM


Visibility: 22 mi

Pressure: 29.78 "Hg

Humidity: 81%

Dew Point: 47 °F

Location of TromsøLocation

Past Weather in Tromsø — Graph

°F

Tromsø Temperature Yesterday

Maximum temperature yesterday: 61 °F (at 9:00 AM)
Minimum temperature yesterday: 53 °F (at 11:00 PM)
Average temperature yesterday: 57 °F

High & Low Weather Summary for the Past Weeks

 TemperatureHumidityPressure
High74 °F (Jul 22, 4:00 PM)98% (Jul 24, 4:00 AM)30.17 "Hg (Jul 24, 4:00 AM)
Low44 °F (Jul 21, 2:00 AM)50% (Jul 22, 3:00 PM)29.41 "Hg (Jul 17, 4:00 AM)
Average54 °F83%29.92 "Hg
* Reported Jul 15 7:00 PM — Jul 30 7:00 PM, Tromsø, Weather by CustomWeather, © 2016

Note: Actual official high and low records may vary slightly from our data, if they occured in-between our weather recording intervals... More about our weather records

Advertising

Tromsø Weather History for the Previous 24 Hours

Scroll right to see more
 ConditionsComfort  
Time TempWeatherWind HumidityBarometerVisibility
7:00 PM
Sat, Jul 30
53 °FPartly sunny.9 mph81%29.78 "Hg28 mi
6:00 PM55 °FOvercast.10 mph79%29.79 "Hg31 mi
5:00 PM56 °FOvercast.9 mph77%29.79 "Hg25 mi
4:00 PM58 °FScattered clouds.8 mph75%29.78 "Hg25 mi
3:00 PM58 °FSunny.9 mph79%29.79 "Hg22 mi
2:00 PM58 °FSunny.9 mph80%29.79 "Hg19 mi
1:00 PM59 °FSunny.7 mph76%29.79 "Hg25 mi
12:00 PM58 °FPassing clouds.5 mph77%29.80 "Hg25 mi
11:00 AM57 °FOvercast.3 mph80%29.80 "Hg25 mi
10:00 AM56 °FOvercast.3 mph80%29.80 "Hg28 mi
9:00 AM55 °FOvercast.1 mph83%29.80 "Hg31 mi
8:00 AM56 °FPartly sunny.1 mph83%29.80 "Hg22 mi
7:00 AM54 °FPassing clouds.2 mph86%29.80 "Hg25 mi
6:00 AM53 °FSunny.1 mph92%29.80 "Hg25 mi
5:00 AM51 °FSunny.1 mph93%29.81 "Hg28 mi
4:00 AM50 °FSunny.2 mph95%29.80 "Hg25 mi
3:00 AM49 °FScattered clouds.2 mph94%29.80 "Hg25 mi
2:00 AM51 °FPassing clouds.2 mph95%29.80 "Hg25 mi
1:00 AM51 °FOvercast.2 mph93%29.80 "Hg31 mi
12:00 AM52 °FOvercast.2 mph91%29.80 "Hg31 mi
11:00 PM
Fri, Jul 29
53 °FOvercast.3 mph89%29.79 "Hg31 mi
10:00 PM55 °FPassing clouds.1 mph82%29.78 "Hg28 mi
9:00 PM57 °FPassing clouds.1 mph81%29.78 "Hg28 mi
8:00 PM58 °FOvercast.1 mph81%29.78 "Hg31 mi
Weather by CustomWeather, © 2016

See weather overviewHow to use our weather pages